When you browse on this site, cookies collect data to enhance your experience and personalize the content and advertising you see.
Visit our Privacy Policy to learn more. By continuing to use the site, you agree to this use of cookies and data.
  • In Czech Republic
  • List of Countries
  • For 7 days
  • Water Temperature
  • Weather Map
  • Weather Widgets
  • user-avatar
    Login

    Hourly Weather La Seyne-sur-Mer

    Today, 4 June, Thursday

    Time Temperature Precipitation Wind Pressure Humidity
    00:00 +19°C° 0.2 mm 3 mps 749 mmHg 84%
    01:00 +19°C° 2.1 mm 3 mps 748 mmHg 86%
    02:00 +19°C° 2.1 mm 4 mps 747 mmHg 89%
    03:00 +18°C° 2.1 mm 4 mps 747 mmHg 91%
    04:00 +17°C° 2.1 mm 5 mps 746 mmHg 92%
    05:00 +17°C° 2.1 mm 6 mps 746 mmHg 92%
    06:00 +17°C° 2.1 mm 7 mps 745 mmHg 92%
    07:00 +19°C° 0.7 mm 6 mps 745 mmHg 92%
    08:00 +19°C° 0.7 mm 6 mps 745 mmHg 91%
    09:00 +19°C° 0.7 mm 6 mps 745 mmHg 90%
    10:00 +19°C° 0.9 mm 6 mps 745 mmHg 87%
    11:00 +19°C° 0.9 mm 5 mps 745 mmHg 85%
    12:00 +20°C° 0.9 mm 5 mps 745 mmHg 82%
    13:00 +20°C° 0.3 mm 5 mps 745 mmHg 78%
    14:00 +20°C° 0.3 mm 6 mps 745 mmHg 74%
    15:00 +20°C° 0.3 mm 6 mps 744 mmHg 70%
    16:00 +20°C° 0 mm 6 mps 744 mmHg 69%
    17:00 +20°C° 0 mm 6 mps 744 mmHg 68%
    18:00 +20°C° 0 mm 7 mps 744 mmHg 67%
    19:00 +20°C° 0.1 mm 8 mps 745 mmHg 68%
    20:00 +18°C° 0.1 mm 8 mps 745 mmHg 69%
    21:00 +18°C° 0.1 mm 9 mps 745 mmHg 70%
    22:00 +17°C° 0 mm 9 mps 745 mmHg 72%
    23:00 +17°C° 0 mm 9 mps 745 mmHg 73%

    Tomorrow, 5 June, Friday

    Time Temperature Precipitation Wind Pressure Humidity
    00:00 +16°C° 0 mm 8 mps 745 mmHg 75%
    01:00 +16°C° 0 mm 10 mps 745 mmHg 71%
    02:00 +16°C° 0 mm 11 mps 745 mmHg 68%
    03:00 +15°C° 0 mm 12 mps 744 mmHg 64%
    04:00 +15°C° 0 mm 13 mps 745 mmHg 61%
    05:00 +15°C° 0 mm 13 mps 745 mmHg 58%
    06:00 +17°C° 0 mm 14 mps 745 mmHg 55%
    07:00 +17°C° 0 mm 14 mps 746 mmHg 53%
    08:00 +18°C° 0 mm 14 mps 746 mmHg 51%
    09:00 +19°C° 0 mm 15 mps 747 mmHg 50%
    10:00 +20°C° 0 mm 14 mps 747 mmHg 46%
    11:00 +22°C° 0 mm 14 mps 747 mmHg 42%
    12:00 +23°C° 0 mm 14 mps 747 mmHg 38%
    13:00 +23°C° 0 mm 13 mps 748 mmHg 38%
    14:00 +24°C° 0 mm 13 mps 748 mmHg 38%
    15:00 +24°C° 0 mm 12 mps 748 mmHg 38%
    16:00 +23°C° 0 mm 12 mps 748 mmHg 41%
    17:00 +23°C° 0 mm 11 mps 748 mmHg 44%
    18:00 +22°C° 0 mm 11 mps 749 mmHg 47%
    19:00 +21°C° 0 mm 11 mps 749 mmHg 50%
    20:00 +19°C° 0 mm 10 mps 750 mmHg 53%
    21:00 +19°C° 0 mm 10 mps 751 mmHg 56%
    22:00 +18°C° 0 mm 10 mps 751 mmHg 59%
    23:00 +18°C° 0 mm 10 mps 751 mmHg 62%

    Day after tomorrow, 6 June, Saturday

    Time Temperature Precipitation Wind Pressure Humidity
    00:00 +17°C° 0 mm 10 mps 751 mmHg 65%
    01:00 +17°C° 0 mm 10 mps 751 mmHg 66%
    02:00 +17°C° 0 mm 9 mps 751 mmHg 68%
    03:00 +16°C° 0 mm 9 mps 751 mmHg 70%
    04:00 +17°C° 0 mm 9 mps 752 mmHg 68%
    05:00 +18°C° 0 mm 9 mps 752 mmHg 66%
    06:00 +18°C° 0 mm 9 mps 752 mmHg 64%
    07:00 +21°C° 0 mm 8 mps 752 mmHg 59%
    08:00 +22°C° 0 mm 8 mps 752 mmHg 54%
    09:00 +24°C° 0 mm 8 mps 752 mmHg 48%
    10:00 +24°C° 0 mm 8 mps 752 mmHg 47%
    11:00 +26°C° 0 mm 8 mps 752 mmHg 47%
    12:00 +27°C° 0 mm 8 mps 752 mmHg 46%
    13:00 +27°C° 0 mm 8 mps 752 mmHg 48%
    14:00 +26°C° 0 mm 8 mps 752 mmHg 49%
    15:00 +26°C° 0 mm 8 mps 752 mmHg 51%
    16:00 +24°C° 0 mm 7 mps 752 mmHg 55%
    17:00 +23°C° 0 mm 7 mps 751 mmHg 59%
    18:00 +22°C° 0 mm 6 mps 751 mmHg 63%
    19:00 +21°C° 0 mm 6 mps 752 mmHg 68%
    20:00 +21°C° 0 mm 5 mps 752 mmHg 72%
    21:00 +20°C° 0 mm 4 mps 752 mmHg 77%
    22:00 +20°C° 0 mm 4 mps 752 mmHg 78%
    23:00 +20°C° 0 mm 4 mps 752 mmHg 80%

    7 June, Sunday

    Time Temperature Precipitation Wind Pressure Humidity
    00:00 +19°C° 0 mm 3 mps 751 mmHg 81%
    01:00 +19°C° 0.2 mm 3 mps 751 mmHg 82%
    02:00 +19°C° 0.2 mm 3 mps 751 mmHg 83%
    03:00 +19°C° 0.2 mm 3 mps 751 mmHg 83%
    04:00 +19°C° 0.2 mm 3 mps 751 mmHg 83%
    05:00 +19°C° 0.2 mm 3 mps 751 mmHg 82%
    06:00 +20°C° 0.2 mm 3 mps 751 mmHg 81%
    07:00 +21°C° 0 mm 3 mps 751 mmHg 73%
    08:00 +23°C° 0 mm 2 mps 752 mmHg 64%
    09:00 +25°C° 0 mm 2 mps 752 mmHg 56%
    10:00 +25°C° 0 mm 4 mps 752 mmHg 55%
    11:00 +25°C° 0 mm 5 mps 752 mmHg 54%
    12:00 +26°C° 0 mm 7 mps 752 mmHg 52%
    13:00 +26°C° 0 mm 6 mps 752 mmHg 51%
    14:00 +24°C° 0 mm 6 mps 752 mmHg 50%
    15:00 +24°C° 0 mm 6 mps 751 mmHg 49%
    16:00 +24°C° 0 mm 7 mps 751 mmHg 51%
    17:00 +23°C° 0 mm 7 mps 751 mmHg 54%
    18:00 +22°C° 0 mm 8 mps 751 mmHg 56%
    19:00 +21°C° 0 mm 7 mps 752 mmHg 60%
    20:00 +20°C° 0 mm 6 mps 752 mmHg 65%
    21:00 +19°C° 0 mm 5 mps 752 mmHg 69%
    22:00 +19°C° 0 mm 6 mps 752 mmHg 66%
    23:00 +19°C° 0 mm 6 mps 752 mmHg 63%

    8 June, Monday

    Time Temperature Precipitation Wind Pressure Humidity
    00:00 +18°C° 0 mm 7 mps 752 mmHg 60%
    01:00 +18°C° 0 mm 7 mps 752 mmHg 60%
    02:00 +17°C° 0 mm 7 mps 752 mmHg 60%
    03:00 +16°C° 0 mm 7 mps 752 mmHg 59%
    04:00 +17°C° 0 mm 8 mps 752 mmHg 56%
    05:00 +17°C° 0 mm 8 mps 752 mmHg 53%
    06:00 +17°C° 0 mm 9 mps 752 mmHg 50%
    07:00 +18°C° 0 mm 9 mps 752 mmHg 46%
    08:00 +19°C° 0 mm 9 mps 752 mmHg 42%
    09:00 +22°C° 0 mm 10 mps 752 mmHg 37%
    10:00 +23°C° 0 mm 10 mps 753 mmHg 36%
    11:00 +24°C° 0 mm 11 mps 753 mmHg 36%
    12:00 +24°C° 0 mm 11 mps 753 mmHg 35%
    13:00 +24°C° 0 mm 11 mps 753 mmHg 35%
    14:00 +24°C° 0 mm 11 mps 752 mmHg 36%
    15:00 +26°C° 0 mm 11 mps 752 mmHg 36%
    16:00 +24°C° 0 mm 11 mps 752 mmHg 38%
    17:00 +23°C° 0 mm 10 mps 752 mmHg 40%
    18:00 +22°C° 0 mm 10 mps 752 mmHg 42%
    19:00 +21°C° 0 mm 10 mps 753 mmHg 43%
    20:00 +19°C° 0 mm 10 mps 753 mmHg 44%
    21:00 +18°C° 0 mm 10 mps 754 mmHg 44%
    22:00 +18°C° 0 mm 9 mps 754 mmHg 48%
    23:00 +17°C° 0 mm 8 mps 754 mmHg 51%

    9 June, Tuesday

    Time Temperature Precipitation Wind Pressure Humidity
    00:00 +16°C° 0 mm 8 mps 754 mmHg 55%
    01:00 +16°C° 0 mm 7 mps 754 mmHg 58%
    02:00 +15°C° 0 mm 7 mps 754 mmHg 61%
    03:00 +15°C° 0 mm 7 mps 754 mmHg 64%
    04:00 +15°C° 0 mm 7 mps 754 mmHg 62%
    05:00 +16°C° 0 mm 6 mps 754 mmHg 60%
    06:00 +17°C° 0 mm 6 mps 755 mmHg 58%
    07:00 +18°C° 0 mm 7 mps 755 mmHg 52%
    08:00 +21°C° 0 mm 7 mps 755 mmHg 47%
    09:00 +23°C° 0 mm 8 mps 755 mmHg 41%
    10:00 +24°C° 0 mm 8 mps 755 mmHg 39%
    11:00 +26°C° 0 mm 9 mps 756 mmHg 37%
    12:00 +27°C° 0 mm 9 mps 756 mmHg 35%
    13:00 +27°C° 0 mm 9 mps 756 mmHg 35%
    14:00 +27°C° 0 mm 10 mps 755 mmHg 34%
    15:00 +27°C° 0 mm 10 mps 755 mmHg 34%
    16:00 +26°C° 0 mm 10 mps 755 mmHg 35%
    17:00 +24°C° 0 mm 9 mps 755 mmHg 37%
    18:00 +23°C° 0 mm 9 mps 755 mmHg 39%
    19:00 +22°C° 0 mm 8 mps 756 mmHg 39%
    20:00 +21°C° 0 mm 7 mps 756 mmHg 40%
    21:00 +20°C° 0 mm 7 mps 756 mmHg 41%
    22:00 +19°C° 0 mm 6 mps 756 mmHg 42%
    23:00 +19°C° 0 mm 6 mps 756 mmHg 44%
    Show more